Flag for Canada Weather past 2 weeks in London, Ontario, Canada

Now
66 °F

Passing clouds.


Feels Like: 66 °F
Forecast: 54 / 72 °F
Wind: 6 mph from Northwest

Location: London Weather Station

Current Time: Aug 27, 2014 at 10:03:06 AM

Latest Report: Aug 27, 2014 at 9:00 AM


Visibility: 15 mi

Pressure: 30.10 "Hg

Humidity: 68%

Dew point: 55 °F

Location of LondonLocation

Historic Weather in London — Graph

°F

London temperature yesterday

Maximum temperature yesterday: 84 °F (at 2:00 PM)
Minimum temperature yesterday: 64 °F (at 12:00 AM)
Average temperature yesterday: 74 °F

Past Weeks' High & Low Weather Summary

 TemperatureHumidityPressure
High84 °F (Aug 26, 2:00 PM)100% (Aug 16, 10:00 PM)30.16 "Hg (Aug 16, 10:00 PM)
Low50 °F (Aug 15, 12:00 AM)43% (Aug 15, 6:00 PM)29.67 "Hg (Aug 12, 6:00 PM)
Average66 °F83%29.96 "Hg
* Reported Aug 12 9:00 AM — Aug 27 9:00 AM, London, Weather by CustomWeather, © 2014

Note: Actual official high and low records may vary slightly from our data, if they occured in-between our weather recording intervals... More about our weather records

Advertising

London weather history for previous 24 hours

 ConditionsComfort  
Time TempWeatherWind HumidityBarometerVisibility
9:00 AM
Aug 27
66 °FPassing clouds.6 mph68%30.10 "Hg15 mi
8:00 AM64 °FPassing clouds.5 mph78%30.09 "Hg15 mi
7:00 AM63 °FPassing clouds.5 mph83%30.09 "Hg15 mi
6:00 AM64 °FPassing clouds.5 mph78%30.08 "Hg12 mi
5:00 AM64 °FPassing clouds.7 mph78%30.08 "Hg12 mi
4:00 AM64 °FPassing clouds.7 mph88%30.06 "Hg10 mi
3:00 AM66 °FPassing clouds.8 mph88%30.06 "Hg10 mi
2:00 AM68 °FPassing clouds.9 mph88%30.05 "Hg8 mi
1:47 AM68 °FFog.8 mph94%30.05 "Hg6 mi
1:00 AM70 °FPassing clouds.5 mph94%30.03 "Hg10 mi
12:00 AM70 °FPassing clouds.6 mph94%30.02 "Hg12 mi
11:00 PM
Aug 26
72 °FPassing clouds.7 mph88%30.01 "Hg10 mi
10:00 PM73 °FPassing clouds.5 mph83%30.00 "Hg12 mi
9:00 PM73 °FPartly sunny.3 mph89%29.99 "Hg12 mi
8:00 PM77 °FPartly sunny.12 mph89%30.01 "Hg8 mi
7:00 PM79 °FPartly sunny.8 mph84%30.02 "Hg10 mi
6:00 PM79 °FMore clouds than sun.2 mph94%30.03 "Hg10 mi
5:00 PM82 °FThunderstorms. Partly sunny.8 mph74%30.02 "Hg15 mi
4:53 PM82 °FThunderstorms. Partly sunny.9 mph79%30.02 "Hg15 mi
4:00 PM84 °FPartly sunny.10 mph66%30.03 "Hg15 mi
3:00 PM84 °FPartly sunny.9 mph70%30.03 "Hg15 mi
2:00 PM84 °FBroken clouds.14 mph70%30.05 "Hg15 mi
1:00 PM82 °FPartly sunny.13 mph70%30.06 "Hg12 mi
12:00 PM81 °FPartly sunny.10 mph74%30.09 "Hg12 mi
11:00 AM79 °FPartly sunny.10 mph84%30.09 "Hg15 mi
10:00 AM77 °FScattered clouds.9 mph83%30.10 "Hg12 mi
Weather by CustomWeather, © 2014

See weather overviewHow to use our weather pages